STARLINK-11258, 62598

Orbit data source: Space-Track

STARLINK-11258, 62598 is a payload satellite owned by SpaceX/Seattle (US) in LEO that was launched on Mon, 13 Jan 2025 UTC via an FALCON 9 launch vehicle from the Air Force Eastern Test Range (AFETR). Payloads include a variety of satellites, spacecraft, and rockets equipped with specific instruments for various scientific and technological missions. These include communications satellites like Starlink; space stations such as the ISS; scientific satellites like the Hubble; Earth observation satellites from companies like Planet Labs, Umbra, and HawkEye 360; GPS; miniature CubeSats for education and research; and military/defense satellites.

Loading next visibility...
STARLINK-11258 details
Identifier
62598, 2025-008M
Orbit
LEO
Last TLE update14 hours ago
Origin
Flag of USSpaceX/Seattle (US)
ManufacturerSpaceX/Seattle
MissionOperational spacecraft
Bus & MotorSTARLINK V2M, Unknown motor
Mass730 kg wet, ~700 kg dry
Launch date (UTC)
2025-01-13 (3 weeks ago)
Launch vehicle
FALCON 9
Launch site
Air Force Eastern Test Range (AFETR)
Object type
Payload
Rocket body
Debris
Shape & HBRUnknown
Radar Cross SectionLarge (>1 m²)

Expand to show TLE details & history

TLE from 14 hours ago
0 STARLINK-11258
1 62598U 25008M   25035.58335648 -.01132680  00000-0 -67419-2 0  9994
2 62598  43.0050   7.4777 0001923 266.5341 108.8298 15.79535858  4677
Epoch: 2025-02-04T14:00Z
Definitive object data (Epoch: 2025-02-04T14:00:01.999Z)
Latitude10.43088°
Longitude33.80157°
Altitude331.186 km
Speed7.712 km/s
True Right ascension01h 15m 11s
True Declination10° 21' 57"
Sunlit
Object was in daylight at TLE epoch
Visualization TLE readout
Latitude28.96829°
Longitude162.7092°
Altitude337.279 km
Speed7.71 km/s
Apparent Right ascension13h 21m 29s
Apparent Declination-9° 26' 45"
Sunlit
Object is in full shadow
Visualization observer readout
Local Sidereal Time06:11:58
Azimuth86.16° E
Elevation-19.347°
Doppler factor1
Orbital elements
Apogee altitude335.033 km
Perigee altitude332.452 km
Semi-major axis6,711.88 km
Eccentricity0.0001923
Inclination43.005°
RAAN7.4777°
Arg. of periapsis266.5341°
True anomaly108.85066°
Mean anomaly108.8298°
Eccentric anomaly108.84023°
Mean motion3.94709 °/min
BSTAR-0.0067419
Orbital period91.21 mins
Loading maneuver chart data...
Loading historical data...
Loading historical data...
Loading historical data...
Loading historical data...
Loading historical data...
Loading historical data...
Loading historical data...

STARLINK-11258 Visibility forecast

Observer location: undefined°, undefined

Span
Click to sort rows by Start time (UTC) header in descending order
Start Az.
Max El. time (UTC)
Max El. Az.
Max El.
End time (UTC)
End Az.
5 mins2025-02-05 05:31:10.082Z291.064° WNW2025-02-05 05:34:10.082Z56.544° ENE40.626°2025-02-05 05:36:10.082Z96.636° ESE
4 mins2025-02-06 02:42:10.082Z277.631° WNW2025-02-06 02:44:10.082Z29.617° NE36.176°2025-02-06 02:46:10.082Z66.946° ENE
|